Date String (YYYY-MM-DD hh:mm:ss) UTC,Instrument flags,Ambient pressure (hPa),Sample flow (lpm),Bypass flow (lpm),Sample temperature (°C),Ambient temperature (°C),ASC tube jacket temperature (°C),LED temperature (°C),Box temperature (°C),Sample RH (%),Span deviation,Mass concentration (μg/m³),Mass concentration (μg/m³),Mass concentration (μg/m³)
DateTimeUTC,F1_M11,P_M11,Q1_M11,Q2_M11,T1_M11,T2_M11,T3_M11,T4_M11,T5_M11,U1_M11,ZSPAN_M11,X2_M11,X0_M11,X1_M11
2021-12-19 23:00:00,,0823.3,5.00,0.00,25.7,24.8,00.0,34.7,27.5,03.3,0000.0,0000.63,0001.68,0000.48
2021-12-19 23:01:00,,0823.4,5.01,0.00,25.7,24.8,00.0,34.7,27.5,03.3,0000.0,0000.65,0001.35,0000.48
2021-12-19 23:02:00,,0823.3,4.99,0.00,25.7,24.8,00.0,34.7,27.5,03.3,0000.0,0000.69,0001.11,0000.49
2021-12-19 23:03:00,,0823.3,4.99,0.00,25.7,24.8,00.0,34.7,27.4,03.4,0000.0,0000.67,0001.01,0000.49
2021-12-19 23:04:00,,0823.4,5.01,0.00,25.7,24.8,00.0,34.7,27.4,03.4,0000.0,0000.70,0001.06,0000.50
2021-12-19 23:05:00,,0823.4,4.99,0.00,25.7,24.8,00.0,34.7,27.3,03.4,0000.0,0000.71,0001.05,0000.50
2021-12-19 23:06:00,,0823.3,5.00,0.00,25.7,24.8,00.0,34.7,27.3,03.4,0000.0,0000.72,0001.06,0000.50
2021-12-19 23:07:00,,0823.3,5.00,0.00,25.7,24.8,00.0,34.7,27.4,03.4,0000.0,0000.75,0001.13,0000.51
2021-12-19 23:08:00,,0823.2,5.00,0.00,25.7,24.8,00.0,34.7,27.5,03.5,0000.0,0000.76,0001.16,0000.51
2021-12-19 23:09:00,,0823.3,5.01,0.00,25.7,24.8,00.0,34.7,27.5,03.5,0000.0,0000.73,0001.10,0000.51
2021-12-19 23:10:00,,0823.2,4.99,0.00,25.7,24.7,00.0,34.7,27.5,03.5,0000.0,0000.72,0001.05,0000.51
2021-12-19 23:11:00,,0823.2,5.00,0.00,25.7,24.7,00.0,34.7,27.5,03.5,0000.0,0000.75,0001.11,0000.52
2021-12-19 23:12:00,,0823.3,5.00,0.00,25.7,24.7,00.0,34.7,27.4,03.5,0000.0,0000.76,0001.12,0000.52
2021-12-19 23:13:00,,0823.2,5.01,0.00,25.6,24.7,00.0,34.7,27.3,03.5,0000.0,0000.74,0001.46,0000.52
2021-12-19 23:14:00,,0823.3,4.99,0.00,25.6,24.7,00.0,34.7,27.4,03.4,0000.0,0000.74,0002.73,0000.52
2021-12-19 23:15:00,,0823.3,5.02,0.00,25.6,24.7,00.0,34.7,27.3,03.4,0000.0,0000.72,0002.70,0000.52
2021-12-19 23:16:00,,0823.3,4.99,0.00,25.6,24.7,00.0,34.7,27.4,03.4,0000.0,0000.76,0002.91,0000.52
2021-12-19 23:17:00,,0823.4,5.00,0.00,25.6,24.6,00.0,34.7,27.4,03.4,0000.0,0000.79,0003.15,0000.52
2021-12-19 23:18:00,,0823.3,5.01,0.00,25.6,24.6,00.0,34.6,27.3,03.4,0000.0,0000.80,0003.33,0000.52
2021-12-19 23:19:00,,0823.4,5.00,0.00,25.6,24.6,00.0,34.6,27.3,03.4,0000.0,0000.83,0003.55,0000.53
2021-12-19 23:20:00,,0823.3,4.99,0.00,25.6,24.6,00.0,34.6,27.2,03.4,0000.0,0000.81,0003.51,0000.53
2021-12-19 23:21:00,,0823.3,5.00,0.00,25.6,24.6,00.0,34.6,27.2,03.4,0000.0,0000.82,0003.72,0000.55
2021-12-19 23:22:00,,0823.4,5.00,0.00,25.5,24.6,00.0,34.6,27.2,03.4,0000.0,0000.79,0004.02,0000.54
2021-12-19 23:23:00,,0823.3,4.99,0.00,25.5,24.6,00.0,34.6,27.2,03.4,0000.0,0000.81,0004.11,0000.54
2021-12-19 23:24:00,,0823.4,5.00,0.00,25.5,24.6,00.0,34.6,27.2,03.4,0000.0,0000.81,0003.69,0000.55
2021-12-19 23:25:00,,0823.4,5.01,0.00,25.5,24.5,00.0,34.6,27.1,03.4,0000.0,0000.83,0002.51,0000.55
2021-12-19 23:26:00,,0823.3,4.99,0.00,25.5,24.5,00.0,34.6,27.2,03.5,0000.0,0000.85,0002.53,0000.55
2021-12-19 23:27:00,,0823.3,5.00,0.00,25.5,24.5,00.0,34.6,27.2,03.5,0000.0,0000.81,0002.34,0000.55
2021-12-19 23:28:00,,0823.4,5.00,0.00,25.5,24.5,00.0,34.6,27.3,03.4,0000.0,0000.79,0002.10,0000.55
2021-12-19 23:29:00,,0823.3,5.01,0.00,25.5,24.5,00.0,34.6,27.2,03.5,0000.0,0000.77,0001.91,0000.56
2021-12-19 23:30:00,,0823.3,5.00,0.00,25.5,24.6,00.0,34.5,27.2,03.4,0000.0,0000.75,0001.69,0000.55
2021-12-19 23:31:00,,0823.3,5.01,0.00,25.5,24.6,00.0,34.5,27.2,03.4,0000.0,0000.76,0001.71,0000.56
2021-12-19 23:32:00,,0823.3,4.99,0.00,25.5,24.5,00.0,34.5,27.1,03.4,0000.0,0000.76,0001.51,0000.55
2021-12-19 23:33:00,,0823.4,5.02,0.00,25.5,24.5,00.0,34.5,27.1,03.4,0000.0,0000.76,0001.13,0000.55
2021-12-19 23:34:00,,0823.3,5.00,0.00,25.5,24.5,00.0,34.5,27.1,03.4,0000.0,0000.74,0001.06,0000.56
2021-12-19 23:35:00,,0823.3,4.98,0.00,25.5,24.5,00.0,34.5,27.1,03.4,0000.0,0000.73,0001.01,0000.56
2021-12-19 23:36:00,,0823.4,5.01,0.00,25.4,24.5,00.0,34.5,27.1,03.4,0000.0,0000.71,0000.98,0000.56
2021-12-19 23:37:00,,0823.3,4.99,0.00,25.4,24.5,00.0,34.5,27.1,03.4,0000.0,0000.72,0001.00,0000.56
2021-12-19 23:38:00,,0823.4,4.99,0.00,25.4,24.5,00.0,34.5,27.0,03.4,0000.0,0000.71,0000.97,0000.56
2021-12-19 23:39:00,,0823.3,4.99,0.00,25.4,24.4,00.0,34.5,27.0,03.4,0000.0,0000.71,0000.97,0000.56
2021-12-19 23:40:00,,0823.3,5.02,0.00,25.4,24.4,00.0,34.5,27.0,03.4,0000.0,0000.71,0001.01,0000.55
2021-12-19 23:41:00,,0823.4,4.99,0.00,25.4,24.4,00.0,34.5,26.9,03.4,0000.0,0000.69,0000.96,0000.55
2021-12-19 23:42:00,,0823.4,4.99,0.00,25.3,24.3,00.0,34.4,26.9,03.4,0000.0,0000.68,0000.96,0000.55
2021-12-19 23:43:00,,0823.5,5.00,0.00,25.3,24.3,00.0,34.4,26.9,03.4,0000.0,0000.69,0000.99,0000.55
2021-12-19 23:44:00,,0823.4,5.00,0.00,25.3,24.3,00.0,34.4,27.0,03.4,0000.0,0000.68,0000.98,0000.55
2021-12-19 23:45:00,,0823.4,5.00,0.00,25.3,24.3,00.0,34.4,26.9,03.4,0000.0,0000.67,0000.94,0000.54
2021-12-19 23:46:00,,0823.4,5.00,0.00,25.3,24.2,00.0,34.4,26.9,03.4,0000.0,0000.67,0000.95,0000.54
2021-12-19 23:47:00,,0823.4,5.00,0.00,25.3,24.3,00.0,34.4,26.9,03.4,0000.0,0000.70,0001.01,0000.54
2021-12-19 23:48:00,,0823.4,5.01,0.00,25.3,24.3,00.0,34.4,27.0,03.4,0000.0,0000.69,0000.98,0000.55
2021-12-19 23:49:00,,0823.4,5.01,0.00,25.3,24.3,00.0,34.4,27.0,03.4,0000.0,0000.69,0000.99,0000.55
2021-12-19 23:50:00,,0823.4,4.98,0.00,25.3,24.3,00.0,34.4,26.9,03.4,0000.0,0000.67,0001.08,0000.56
2021-12-19 23:51:00,,0823.5,5.01,0.00,25.3,24.4,00.0,34.4,26.9,03.4,0000.0,0000.65,0001.27,0000.56
2021-12-19 23:52:00,,0823.4,5.00,0.00,25.3,24.4,00.0,34.4,26.9,03.4,0000.0,0000.67,0001.31,0000.57
2021-12-19 23:53:00,,0823.4,4.99,0.00,25.3,24.4,00.0,34.4,27.0,03.4,0000.0,0000.68,0001.42,0000.57
2021-12-19 23:54:00,,0823.4,5.01,0.00,25.3,24.3,00.0,34.4,27.0,03.4,0000.0,0000.68,0001.38,0000.57
2021-12-19 23:55:00,,0823.5,4.99,0.00,25.3,24.3,00.0,34.4,27.0,03.4,0000.0,0000.67,0001.37,0000.57
2021-12-19 23:56:00,,0823.4,5.01,0.00,25.3,24.3,00.0,34.4,26.9,03.4,0000.0,0000.69,0001.41,0000.58
2021-12-19 23:57:00,,0823.4,5.01,0.00,25.3,24.4,00.0,34.4,26.9,03.4,0000.0,0000.70,0001.43,0000.58
2021-12-19 23:58:00,,0823.4,5.00,0.00,25.3,24.4,00.0,34.4,26.8,03.4,0000.0,0000.69,0001.42,0000.58
2021-12-19 23:59:00,,0823.4,4.99,0.00,25.3,24.3,00.0,34.4,26.8,03.4,0000.0,0000.73,0001.56,0000.58
